| time (UTC) | temp F | wind direction | speed knots | gust knots | rain 1hr in | rain 24hr in | rain mn in | humidity % | barometer mb |
| 20260505152018 | 57 | 0.0 | 0.0 | 0.00 | 0.00 | 0.00 | 86 | 1008.0 | |
| 20260505151029 | 57 | 0.0 | 0.0 | 0.00 | 0.00 | 0.00 | 86 | 1007.9 | |
| 20260505150131 | 57 | 0.0 | 0.0 | 0.00 | 0.00 | 0.00 | 86 | 1008.2 | |
| 20260505140116 | 56 | 42 | 0.0 | 0.9 | 0.00 | 0.00 | 0.00 | 89 | 1007.6 |
| 20260505124111 | 55 | 42 | 0.9 | 1.7 | 0.00 | 0.00 | 0.00 | 90 | 1007.1 |
| 20260505123050 | 55 | 42 | 0.0 | 2.6 | 0.00 | 0.00 | 0.00 | 90 | 1007.0 |
| 20260505122030 | 54 | 42 | 0.0 | 0.9 | 0.00 | 0.00 | 0.00 | 90 | 1006.9 |
| 20260505121041 | 54 | 42 | 0.0 | 0.9 | 0.00 | 0.00 | 0.00 | 90 | 1007.1 |
| 20260505120052 | 54 | 0.0 | 0.0 | 0.00 | 0.00 | 0.00 | 90 | 1007.0 | |
| 20260505115035 | 53 | 42 | 0.0 | 1.7 | 0.00 | 0.00 | 0.00 | 90 | 1006.8 |
| 20260505114135 | 53 | 0.0 | 0.0 | 0.00 | 0.00 | 0.00 | 90 | 1006.6 | |
| 20260505113054 | 53 | 0.0 | 0.0 | 0.00 | 0.00 | 0.00 | 90 | 1006.2 | |
| 20260505112136 | 53 | 42 | 0.9 | 2.6 | 0.00 | 0.00 | 0.00 | 90 | 1006.1 |
| 20260505111045 | 53 | 0.0 | 0.0 | 0.00 | 0.00 | 0.00 | 90 | 1005.8 | |
| 20260505102038 | 53 | 0.0 | 0.0 | 0.00 | 0.00 | 0.00 | 90 | 1006.0 | |
| 20260505101018 | 53 | 42 | 0.0 | 0.9 | 0.00 | 0.00 | 0.00 | 90 | 1006.1 |
| 20260505100100 | 53 | 42 | 0.0 | 0.9 | 0.00 | 0.00 | 0.00 | 90 | 1005.7 |
| 20260505095040 | 53 | 42 | 0.0 | 0.9 | 0.00 | 0.00 | 0.00 | 90 | 1005.3 |
| 20260505094053 | 53 | 42 | 0.0 | 0.9 | 0.00 | 0.00 | 0.00 | 90 | 1005.6 |
| 20260505093031 | 53 | 42 | 0.9 | 2.6 | 0.00 | 0.00 | 0.00 | 90 | 1005.7 |
| 20260505092043 | 53 | 0.0 | 0.0 | 0.00 | 0.00 | 0.00 | 89 | 1005.3 | |
| 20260505091053 | 53 | 45 | 0.0 | 0.9 | 0.00 | 0.00 | 0.00 | 89 | 1004.9 |
| 20260505090033 | 53 | 52 | 0.9 | 1.7 | 0.00 | 0.00 | 0.00 | 89 | 1005.0 |
| 20260505085044 | 53 | 86 | 1.7 | 5.2 | 0.00 | 0.00 | 0.00 | 89 | 1004.8 |
| 20260505084024 | 53 | 38 | 1.7 | 4.3 | 0.00 | 0.00 | 0.00 | 89 | 1004.8 |
| 20260505083055 | 53 | 56 | 1.7 | 2.6 | 0.00 | 0.00 | 0.00 | 89 | 1004.7 |
| 20260505082051 | 53 | 126 | 0.9 | 1.7 | 0.00 | 0.00 | 0.00 | 89 | 1006.0 |
| 20260505081026 | 53 | 152 | 0.0 | 0.9 | 0.00 | 0.00 | 0.00 | 89 | 1006.9 |
| 20260505080159 | 53 | 0.0 | 0.0 | 0.00 | 0.00 | 0.00 | 88 | 1007.0 | |
| 20260505075017 | 53 | 0.0 | 0.0 | 0.00 | 0.00 | 0.00 | 88 | 1007.3 | |
| 20260505074100 | 53 | 0.0 | 0.0 | 0.00 | 0.00 | 0.00 | 88 | 1006.9 | |
| 20260505073142 | 54 | 0.0 | 0.0 | 0.00 | 0.00 | 0.00 | 88 | 1007.0 | |
| 20260505072050 | 54 | 0.0 | 0.0 | 0.00 | 0.00 | 0.00 | 88 | 1007.3 | |
| 20260505071030 | 54 | 0.0 | 0.0 | 0.00 | 0.00 | 0.00 | 87 | 1007.1 | |
| 20260505070112 | 54 | 0.0 | 0.0 | 0.00 | 0.00 | 0.00 | 87 | 1006.7 | |
| 20260505065142 | 54 | 0.0 | 0.0 | 0.00 | 0.00 | 0.00 | 87 | 1006.3 | |
| 20260505064031 | 54 | 0.0 | 0.0 | 0.00 | 0.00 | 0.00 | 86 | 1006.1 | |
| 20260505063113 | 54 | 0.0 | 0.0 | 0.00 | 0.00 | 0.00 | 86 | 1006.3 | |
| 20260505062042 | 54 | 0.0 | 0.0 | 0.00 | 0.00 | 0.00 | 85 | 1006.0 | |
| 20260505061033 | 54 | 0.0 | 0.0 | 0.00 | 0.00 | 0.00 | 85 | 1007.2 | |
| 20260505060044 | 55 | 159 | 0.9 | 1.7 | 0.00 | 0.00 | 0.00 | 84 | 1007.1 |
| 20260505055024 | 56 | 200 | 0.9 | 1.7 | 0.00 | 0.00 | 0.00 | 83 | 1006.8 |
| 20260505054108 | 57 | 106 | 0.9 | 2.6 | 0.00 | 0.00 | 0.00 | 81 | 1006.7 |
| 20260505053118 | 58 | 112 | 0.9 | 2.6 | 0.00 | 0.00 | 0.00 | 78 | 1005.6 |
| 20260505052047 | 63 | 95 | 1.7 | 4.3 | 0.00 | 0.00 | 0.00 | 68 | 1006.1 |
| 20260505051101 | 64 | 77 | 1.7 | 5.2 | 0.00 | 0.00 | 0.00 | 59 | 1004.7 |
| 20260505041112 | 67 | 343 | 1.7 | 2.6 | 0.00 | 0.00 | 0.00 | 45 | 1003.0 |
| 20260505040053 | 67 | 341 | 0.9 | 2.6 | 0.00 | 0.00 | 0.00 | 45 | 1003.0 |
| 20260505035033 | 67 | 331 | 0.9 | 2.6 | 0.00 | 0.00 | 0.00 | 45 | 1003.1 |
| 20260505034115 | 67 | 142 | 0.9 | 1.7 | 0.00 | 0.00 | 0.00 | 45 | 1003.0 |
| 20260505033055 | 67 | 97 | 0.9 | 1.7 | 0.00 | 0.00 | 0.00 | 45 | 1003.2 |
| 20260505032107 | 67 | 88 | 0.9 | 1.7 | 0.00 | 0.00 | 0.00 | 45 | 1003.3 |
| 20260505031117 | 67 | 91 | 0.9 | 4.3 | 0.00 | 0.00 | 0.00 | 46 | 1003.4 |
| 20260505030057 | 67 | 92 | 0.9 | 1.7 | 0.00 | 0.00 | 0.00 | 46 | 1003.5 |
| 20260505025056 | 68 | 94 | 0.9 | 2.6 | 0.00 | 0.00 | 0.00 | 46 | 1003.5 |
| 20260505024118 | 68 | 105 | 0.9 | 1.7 | 0.00 | 0.00 | 0.00 | 47 | 1003.6 |
| 20260505023149 | 68 | 106 | 0.9 | 4.3 | 0.00 | 0.00 | 0.00 | 45 | 1003.5 |
| 20260505022040 | 68 | 106 | 0.9 | 1.7 | 0.00 | 0.00 | 0.00 | 45 | 1003.6 |
| 20260505021120 | 68 | 106 | 0.9 | 0.9 | 0.00 | 0.00 | 0.00 | 45 | 1003.6 |
| 20260505020029 | 68 | 106 | 0.9 | 1.7 | 0.00 | 0.00 | 0.00 | 45 | 1003.5 |
| 20260505015111 | 69 | 105 | 0.9 | 1.7 | 0.00 | 0.00 | 0.00 | 45 | 1003.4 |
| 20260505014021 | 69 | 106 | 0.9 | 1.7 | 0.00 | 0.00 | 0.00 | 45 | 1003.3 |
| 20260505013031 | 68 | 134 | 0.0 | 1.7 | 0.00 | 0.00 | 0.00 | 46 | 1003.0 |
| 20260505012113 | 69 | 70 | 0.0 | 0.9 | 0.00 | 0.00 | 0.00 | 46 | 1002.8 |
| 20260505011053 | 69 | 70 | 0.9 | 1.7 | 0.00 | 0.00 | 0.00 | 45 | 1002.6 |
| 20260505010033 | 69 | 86 | 1.7 | 2.6 | 0.00 | 0.00 | 0.00 | 44 | 1002.4 |
| 20260505005116 | 69 | 90 | 0.9 | 1.7 | 0.00 | 0.00 | 0.00 | 44 | 1002.2 |
| 20260505004055 | 70 | 91 | 0.9 | 4.3 | 0.00 | 0.00 | 0.00 | 44 | 1002.2 |
| 20260505003055 | 70 | 89 | 1.7 | 4.3 | 0.00 | 0.00 | 0.00 | 44 | 1002.0 |
| 20260505002118 | 70 | 98 | 0.9 | 1.7 | 0.00 | 0.00 | 0.00 | 43 | 1002.1 |
| 20260505001027 | 71 | 131 | 1.7 | 4.3 | 0.00 | 0.00 | 0.00 | 42 | 1002.1 |
| 20260505000109 | 71 | 80 | 1.7 | 4.3 | 0.00 | 0.00 | 0.00 | 41 | 1002.3 |
| 20260504235049 | 71 | 109 | 1.7 | 5.2 | 0.00 | 0.00 | 0.00 | 40 | 1002.4 |
| 20260504234029 | 72 | 69 | 0.9 | 4.3 | 0.00 | 0.00 | 0.00 | 39 | 1002.8 |
| 20260504233110 | 72 | 66 | 1.7 | 4.3 | 0.00 | 0.00 | 0.00 | 39 | 1002.9 |
| 20260504232019 | 72 | 75 | 1.7 | 5.2 | 0.00 | 0.00 | 0.00 | 37 | 1003.0 |
| 20260504231101 | 72 | 90 | 2.6 | 4.3 | 0.00 | 0.00 | 0.00 | 37 | 1003.1 |
| 20260504230041 | 73 | 61 | 3.5 | 7.0 | 0.00 | 0.00 | 0.00 | 36 | 1003.1 |
| 20260504225021 | 73 | 80 | 2.6 | 4.3 | 0.00 | 0.00 | 0.00 | 36 | 1003.5 |
| 20260504224103 | 72 | 74 | 1.7 | 2.6 | 0.00 | 0.00 | 0.00 | 39 | 1003.5 |
| 20260504223115 | 73 | 69 | 1.7 | 4.3 | 0.00 | 0.00 | 0.00 | 41 | 1003.4 |
| 20260504222055 | 72 | 66 | 0.9 | 2.6 | 0.00 | 0.00 | 0.00 | 48 | 1003.2 |
| 20260504221055 | 71 | 91 | 0.9 | 1.7 | 0.00 | 0.00 | 0.00 | 50 | 1003.5 |
| 20260504220117 | 71 | 38 | 1.7 | 4.3 | 0.00 | 0.00 | 0.00 | 51 | 1003.6 |
| 20260504215057 | 71 | 351 | 1.7 | 5.2 | 0.00 | 0.00 | 0.00 | 52 | 1003.6 |
| 20260504214037 | 70 | 11 | 1.7 | 6.1 | 0.00 | 0.00 | 0.00 | 52 | 1003.8 |
| 20260504213119 | 70 | 350 | 0.9 | 2.6 | 0.00 | 0.00 | 0.00 | 53 | 1003.9 |
| 20260504212059 | 70 | 22 | 2.6 | 4.3 | 0.00 | 0.00 | 0.00 | 53 | 1003.9 |
| 20260504211038 | 68 | 353 | 1.7 | 4.3 | 0.00 | 0.00 | 0.00 | 57 | 1004.2 |
| 20260504210049 | 67 | 350 | 0.9 | 2.6 | 0.00 | 0.00 | 0.00 | 62 | 1004.5 |
| 20260504205029 | 65 | 63 | 0.9 | 4.3 | 0.00 | 0.00 | 0.00 | 65 | 1004.7 |
| 20260504204111 | 65 | 63 | 1.7 | 2.6 | 0.00 | 0.00 | 0.00 | 66 | 1004.6 |
| 20260504203051 | 64 | 165 | 0.9 | 2.6 | 0.00 | 0.00 | 0.00 | 67 | 1004.9 |
| 20260504202031 | 64 | 72 | 1.7 | 4.3 | 0.00 | 0.00 | 0.00 | 65 | 1004.8 |
| 20260504201113 | 65 | 30 | 1.7 | 2.6 | 0.00 | 0.00 | 0.00 | 64 | 1004.5 |
| 20260504200023 | 64 | 72 | 1.7 | 2.6 | 0.00 | 0.00 | 0.00 | 65 | 1005.3 |
| 20260504195104 | 64 | 5 | 2.6 | 5.2 | 0.00 | 0.00 | 0.00 | 61 | 1004.9 |
| 20260504194045 | 65 | 104 | 1.7 | 5.2 | 0.00 | 0.00 | 0.00 | 56 | 1005.5 |
| 20260504193025 | 64 | 87 | 0.0 | 0.9 | 0.00 | 0.00 | 0.00 | 59 | 1004.8 |
| 20260504192107 | 64 | 87 | 0.9 | 1.7 | 0.00 | 0.00 | 0.00 | 59 | 1005.2 |
| 20260504191047 | 65 | 87 | 1.7 | 4.3 | 0.00 | 0.00 | 0.00 | 55 | 1005.2 |
| 20260504190027 | 66 | 114 | 1.7 | 4.3 | 0.00 | 0.00 | 0.00 | 51 | 1005.4 |
| 20260504185109 | 66 | 117 | 0.9 | 1.7 | 0.00 | 0.00 | 0.00 | 52 | 1005.7 |
| 20260504184049 | 66 | 107 | 1.7 | 2.6 | 0.00 | 0.00 | 0.00 | 53 | 1005.7 |
| 20260504183028 | 67 | 83 | 1.7 | 5.2 | 0.00 | 0.00 | 0.00 | 53 | 1005.8 |
| 20260504182130 | 67 | 78 | 0.9 | 4.3 | 0.00 | 0.00 | 0.00 | 52 | 1006.2 |
| 20260504181051 | 68 | 83 | 1.7 | 4.3 | 0.00 | 0.00 | 0.00 | 50 | 1006.2 |
| 20260504180030 | 68 | 101 | 1.7 | 2.6 | 0.00 | 0.00 | 0.00 | 50 | 1006.0 |
| 20260504175112 | 69 | 97 | 1.7 | 4.3 | 0.00 | 0.00 | 0.00 | 49 | 1005.7 |
| 20260504174053 | 70 | 99 | 2.6 | 7.8 | 0.00 | 0.00 | 0.00 | 47 | 1005.7 |
| 20260504173032 | 70 | 68 | 1.7 | 2.6 | 0.00 | 0.00 | 0.00 | 48 | 1005.7 |
| 20260504172134 | 70 | 39 | 1.7 | 5.2 | 0.00 | 0.00 | 0.00 | 48 | 1005.5 |
| 20260504171055 | 71 | 62 | 1.7 | 5.2 | 0.00 | 0.00 | 0.00 | 47 | 1005.2 |
| 20260504170105 | 69 | 64 | 1.7 | 4.3 | 0.00 | 0.00 | 0.00 | 50 | 1005.6 |